CAPE
12 7 3 6 7 4 0 4 1 0 0 0 0 0 0 0 0 0 0 0 0 0 0 0 0 0 0 0 0 0 0 0 0 0 0 0 0 0 0 0 0 1 2 2 0 1 0 0 0 0 0 0 0 0
6 7 4 6 5 6 0 2 0 0 1 0 0 0 0 0 0 0 0 0 0 0 0 0 0 0 0 0 0 0 0 0 0 0 0 1 1 0 0 0 0 3 0 0 0 0 0 0 0 0 0 0 0 0
6 8 4 6 5 3 0 1 0 0 0 0 0 0 0 0 0 0 0 0 0 0 0 0 0 0 0 0 0 0 0 0 0 0 0 0 0 0 0 0 0 0 0 0 0 0 0 0 0 0 0 0 0 0
6 4 5 7 8 1 1 0 0 0 0 1 0 0 0 0 0 0 0 0 0 0 0 0 0 0 0 0 0 0 0 0 0 0 0 0 0 0 0 0 0 0 0 0 0 0 0 0 0 0 0 0 0 2
4 10 5 6 7 2 1 0 0 0 1 3 0 0 0 0 0 0 0 0 0 0 0 0 0 0 0 0 0 0 0 0 0 0 0 0 0 0 0 0 0 0 0 0 0 0 0 0 0 1 0 0 1 0
7 9 6 9 9 4 1 0 1 0 2 0 0 0 0 0 0 0 0 0 0 0 0 0 0 0 0 0 0 0 0 0 0 0 0 0 0 0 0 0 0 0 0 0 0 0 1 0 2 0 0 0 0 2
4 7 5 11 3 4 0 1 1 1 2 0 0 0 0 0 0 0 0 0 0 0 0 0 0 0 0 0 0 0 0 0 0 0 0 0 0 0 0 0 0 0 1 1 2 0 0 1 2 1 0 1 3 3
8 4 5 4 4 6 0 6 2 3 0 1 2 0 0 0 0 0 0 0 0 0 0 0 0 0 0 0 0 0 0 0 0 0 0 0 0 0 0 0 0 0 0 0 1 1 2 1 3 2 1 1 1 2
7 5 7 1 6 2 0 6 2 0 0 1 2 0 0 0 0 0 0 0 0 0 0 0 0 0 0 0 0 0 0 0 0 0 0 0 0 0 0 0 0 0 0 0 0 0 0 0 2 3 1 2 1 1
3 5 7 12 6 0 8 5 0 0 0 0 0 0 0 0 0 0 0 0 0 0 0 0 0 0 0 0 0 1 0 0 0 0 0 0 0 0 0 0 0 0 0 0 0 0 0 0 0 0 2 1 2 2
5 7 12 4 2 2 7 0 0 0 0 0 0 0 0 0 0 0 0 0 0 0 0 0 0 0 0 0 0 0 0 0 0 0 0 0 0 0 0 0 0 0 0 0 0 0 0 0 0 1 0 3 0 2
5 5 10 5 2 3 1 0 0 0 0 0 0 0 0 0 0 0 0 0 0 0 0 0 0 0 0 0 0 0 0 0 0 0 0 0 0 0 0 0 0 0 0 0 0 0 0 0 0 0 1 0 2 2
4 6 5 2 2 2 0 0 0 0 0 0 0 0 0 0 0 0 0 0 0 0 0 0 0 0 0 0 0 0 0 1 0 0 0 0 0 0 0 0 0 0 0 0 0 0 0 0 0 0 0 0 1 2
8 10 4 3 3 2 0 0 0 0 0 0 0 0 0 0 0 0 0 0 0 0 0 0 0 0 0 0 0 0 0 0 0 1 0 0 0 0 0 0 0 0 0 0 0 0 0 0 0 0 0 0 0 0
9 4 3 2 1 0 0 0 0 0 0 0 0 0 0 0 0 0 0 0 0 0 0 0 0 0 0 0 0 0 0 0 0 0 0 0 0 0 0 0 0 0 0 0 0 0 0 0 0 0 0 0 0 0
9 6 2 4 1 1 0 0 0 0 0 0 0 0 0 0 0 0 0 0 0 0 0 0 0 0 0 0 0 0 0 0 0 0 0 0 0 0 0 0 0 0 0 0 0 0 0 0 0 0 0 1 1 1
1 3 4 2 0 0 0 0 0 0 0 0 0 0 0 0 0 0 0 0 0 0 0 0 0 0 0 0 0 0 0 0 0 0 0 0 0 0 0 0 0 0 0 0 0 0 0 0 0 0 0 0 1 1
0 4 4 0 0 0 0 0 0 0 0 0 0 0 0 0 0 0 0 0 0 0 0 0 0 0 0 0 0 0 0 0 0 0 0 0 0 0 0 0 0 0 0 0 0 0 0 0 0 0 0 0 1 1
2 1 0 0 0 0 0 0 0 0 0 0 0 0 0 0 0 0 0 0 0 0 0 0 0 0 0 0 0 0 0 0 0 0 0 0 0 0 0 0 0 0 0 0 0 0 0 0 0 0 0 0 0 0
1 0 0 0 0 0 0 0 0 0 0 0 0 0 0 0 0 0 0 0 0 0 0 0 0 0 0 0 0 0 0 0 0 0 0 0 0 0 0 0 0 0 0 0 0 0 0 0 0 0 0 0 0 0
0 0 0 0 0 0 0 0 0 0 0 0 0 0 0 0 0 0 0 0 0 0 0 0 0 0 0 0 0 0 0 0 0 0 0 0 0 0 0 0 0 0 0 0 0 0 0 0 0 0 0 0 0 0
0 0 0 0 0 0 0 0 0 0 0 0 0 0 0 0 0 0 0 0 0 0 0 0 0 0 0 0 0 0 0 0 0 0 0 0 0 0 0 0 0 0 0 0 0 0 0 0 0 0 0 0 0 0
0 0 0 0 0 0 0 0 0 0 0 0 0 0 0 0 0 0 0 0 0 0 0 0 0 0 0 0 0 0 0 0 0 0 0 0 0 0 0 0 0 0 0 0 0 0 0 0 0 0 0 0 0 0
0 0 0 0 0 0 0 0 0 0 0 0 0 0 0 0 0 0 0 0 0 0 0 0 0 0 0 0 0 0 0 0 0 0 0 0 0 0 0 0 0 0 0 0 0 0 0 0 0 0 0 0 0 0
0 0 0 0 0 0 0 0 0 0 0 0 0 0 0 0 0 0 0 0 0 0 0 0 0 0 0 0 0 0 0 0 0 0 0 0 0 0 0 0 0 0 0 0 0 0 0 0 0 0 0 0 0 0
0 0 0 0 0 0 0 0 0 0 0 0 0 0 0 0 0 0 0 0 0 0 0 0 0 0 0 0 0 0 0 0 0 0 0 0 0 0 0 0 0 0 0 0 0 0 0 0 0 0 0 0 0 0
0 0 0 0 0 0 0 0 0 0 0 0 0 0 0 0 0 0 0 0 0 0 0 0 0 0 0 0 0 0 0 0 0 0 0 0 0 0 0 0 0 0 0 0 0 0 0 0 0 0 0 0 0 0
0 0 0 0 0 0 0 0 0 0 0 0 0 0 0 0 0 0 0 0 0 0 0 0 0 0 0 0 0 0 0 0 0 0 0 0 0 0 0 0 0 0 0 0 0 0 0 0 0 0 0 0 0 0
0 0 0 0 0 0 0 0 0 0 0 0 0 0 0 0 0 0 0 0 0 0 0 0 0 0 0 0 0 0 0 0 0 0 0 0 0 0 0 0 0 0 0 0 0 0 0 0 0 0 0 0 0 0
0 0 0 0 0 0 0 0 0 0 0 0 0 0 0 0 0 0 0 0 0 0 0 0 0 0 0 0 0 0 0 0 0 0 0 0 0 0 0 0 0 0 0 0 0 0 0 0 0 0 0 0 0 0
0 0 0 0 0 0 0 0 0 0 0 0 0 0 0 0 0 0 0 0 0 0 0 0 0 0 0 0 0 0 0 0 0 0 0 0 0 0 0 0 0 0 0 0 0 0 0 0 0 0 0 0 0 0
0 0 0 0 0 0 0 0 0 0 0 0 0 0 0 0 0 0 0 0 0 0 0 0 0 0 0 0 0 0 0 0 0 0 0 0 0 0 0 0 0 0 0 0 0 0 0 0 0 0 0 0 0 0
0 0 0 0 0 0 0 0 0 0 0 0 0 0 0 0 0 0 0 0 0 0 0 0 0 0 0 0 0 0 0 0 0 0 0 0 1 0 0 0 0 0 0 0 0 0 0 0 0 0 0 0 0 0
CIN
0 0 0 0 0 0 0 0 0 0 0 0 0 0 0 0 0 0 0 0 0 0 0 0 0 0 0 0 0 0 0 0 0 0 0 0 0 0 0 0 0 -2 0 -1 -1 -1 0 0 0 0 0 0 0 0
-1 0 0 0 0 0 0 0 0 0 0 0 0 0 0 0 0 0 0 0 0 0 0 0 0 0 0 0 0 0 0 0 0 0 0 0 0 0 0 0 0 -3 -1 0 0 0 0 0 0 0 0 0 0 0
0 0 0 0 0 0 0 0 0 0 0 0 0 0 0 0 0 0 0 0 0 0 0 0 0 0 0 0 0 0 0 0 0 0 0 0 0 0 0 0 0 0 0 0 0 0 0 0 0 0 0 0 0 0
0 0 0 0 0 0 0 0 0 0 0 0 0 0 0 0 0 0 0 0 0 0 0 0 0 0 0 0 0 0 0 0 0 0 0 0 0 0 0 0 0 0 0 0 0 0 0 0 0 0 0 0 0 0
-2 0 0 0 0 0 0 0 0 0 0 0 0 0 0 0 0 0 0 0 0 0 0 0 0 0 0 0 0 0 0 0 0 0 0 0 0 0 0 0 0 0 0 0 0 0 0 0 0 0 0 0 0 0
0 0 0 0 0 0 0 0 0 0 0 0 0 0 0 0 0 0 0 0 0 0 0 0 0 0 0 0 0 0 0 0 0 0 0 0 0 0 0 0 0 0 0 0 0 0 0 0 0 0 0 0 0 0
0 0 0 0 0 0 0 0 0 0 0 0 0 0 0 0 0 0 0 0 0 0 0 0 0 0 0 0 0 0 0 0 0 0 0 0 0 0 0 0 0 0 0 0 0 0 0 0 0 0 0 0 0 0
0 0 0 0 0 0 0 0 0 0 0 0 0 0 0 0 0 0 0 0 0 0 0 0 0 0 0 0 0 0 0 0 0 0 0 0 0 0 0 0 0 0 0 0 0 0 0 0 0 0 0 0 0 0
0 0 0 0 0 0 0 0 0 0 0 0 0 0 0 0 0 0 0 0 0 0 0 0 0 0 0 0 0 0 0 0 0 0 0 0 0 0 0 0 0 0 0 0 0 0 0 0 0 0 0 0 0 0
0 0 0 0 0 0 0 0 0 0 0 0 0 0 0 0 0 0 0 0 0 0 0 0 0 0 0 0 0 0 0 0 0 0 0 0 0 0 0 0 0 0 0 0 0 0 0 0 0 0 0 0 0 0
0 0 0 0 0 0 0 0 0 0 0 0 0 0 0 0 0 0 0 0 0 0 0 0 0 0 0 0 0 0 0 0 0 0 0 0 0 0 0 0 0 0 0 0 0 0 0 0 0 0 0 0 0 0
0 0 0 0 0 0 0 0 0 0 0 0 0 0 0 0 0 0 0 0 0 0 0 0 0 0 0 0 0 0 0 0 0 0 0 0 0 0 0 0 0 0 0 0 0 0 0 0 0 0 0 0 0 0
0 0 0 0 0 0 0 0 0 0 0 0 0 0 0 0 0 0 0 0 0 0 0 0 0 0 0 0 0 0 0 0 0 0 0 0 0 0 0 0 0 0 0 0 0 0 0 0 0 0 0 0 0 0
0 0 0 0 0 0 0 0 0 0 0 0 0 0 0 0 0 0 0 0 0 0 0 0 0 0 0 0 0 0 0 -2 0 -1 0 0 0 0 0 0 0 0 0 0 0 0 0 0 0 0 0 0 0 0
0 -5 0 0 0 0 0 0 0 0 0 0 0 0 0 0 0 0 0 0 0 0 0 0 0 0 0 0 0 0 0 0 0 0 0 0 0 0 0 0 0 0 0 0 0 0 0 0 0 0 0 0 0 0
-1 -1 0 0 0 0 0 0 0 0 0 0 0 0 0 0 0 0 0 0 0 0 0 0 0 0 0 0 0 0 0 0 0 0 0 0 0 0 0 0 0 0 0 0 0 0 0 0 0 0 0 0 0 0
-1 -1 0 0 0 0 0 0 0 0 0 0 0 0 0 0 0 0 0 0 0 0 0 0 0 0 0 0 0 0 0 0 0 0 0 0 0 0 0 0 0 0 0 0 0 0 0 0 0 0 0 0 0 0
0 0 0 0 0 0 0 0 0 0 0 0 0 0 0 0 0 0 0 0 0 0 0 0 0 0 0 0 0 0 0 0 0 0 0 0 0 0 0 0 0 0 0 0 0 0 0 0 0 0 0 0 0 0
0 0 0 0 0 0 0 0 0 0 0 0 0 0 0 0 0 0 0 0 0 0 0 0 0 0 0 0 0 0 0 0 0 0 0 0 0 0 0 0 0 0 0 0 0 0 0 0 0 0 0 0 0 0
0 0 0 0 0 0 0 0 0 0 0 0 0 0 0 0 0 0 0 0 0 0 0 0 0 0 0 0 0 0 0 0 0 0 0 0 0 0 0 0 0 0 0 0 0 0 0 0 0 0 0 0 0 0
0 0 0 0 0 0 0 0 0 0 0 0 0 0 0 0 0 0 0 0 0 0 0 0 0 0 0 0 0 0 0 0 0 0 0 0 0 0 0 0 0 0 0 0 0 0 0 0 0 0 0 0 0 0
0 0 0 0 0 0 0 0 0 0 0 0 0 0 0 0 0 0 0 0 0 0 0 0 0 0 0 0 0 0 0 0 0 0 0 0 0 0 0 0 0 0 0 0 0 0 0 0 0 0 0 0 0 0
0 0 0 0 0 0 0 0 0 0 0 0 0 0 0 0 0 0 0 0 0 0 0 0 0 0 0 0 0 0 0 0 0 0 0 0 0 0 0 0 0 0 0 0 0 0 0 0 0 0 0 0 0 0
0 0 0 0 0 0 0 0 0 0 0 0 0 0 0 0 0 0 0 0 0 0 0 0 0 0 0 0 0 0 0 0 0 0 0 0 0 0 0 0 0 0 0 0 0 0 0 0 0 0 0 0 0 0
0 0 0 0 0 0 0 0 0 0 0 0 0 0 0 0 0 0 0 0 0 0 0 0 0 0 0 0 0 0 0 0 0 0 0 0 0 0 0 0 0 0 0 0 0 0 0 0 0 0 0 0 0 0
0 0 0 0 0 0 0 0 0 0 0 0 0 0 0 0 0 0 0 0 0 0 0 0 0 0 0 0 0 0 0 0 0 0 0 0 0 0 0 0 0 0 0 0 0 0 0 0 0 0 0 0 0 0
0 0 0 0 0 0 0 0 0 0 0 0 0 0 0 0 0 0 0 0 0 0 0 0 0 0 0 0 0 0 0 0 0 0 0 0 0 0 0 0 0 0 0 0 0 0 0 0 0 0 0 0 0 0
0 0 0 0 0 0 0 0 0 0 0 0 0 0 0 0 0 0 0 0 0 0 0 0 0 0 0 0 0 0 0 0 0 0 0 0 0 0 0 0 0 0 0 0 0 0 0 0 0 0 0 0 0 0
0 0 0 0 0 0 0 0 0 0 0 0 0 0 0 0 0 0 0 0 0 0 0 0 0 0 0 0 0 0 0 0 0 0 0 0 0 0 0 0 0 0 0 0 0 0 0 0 0 0 0 0 0 0
0 0 0 0 0 0 0 0 0 0 0 0 0 0 0 0 0 0 0 0 0 0 0 0 0 0 0 0 0 0 0 0 0 0 0 0 0 0 0 0 0 0 0 0 0 0 0 0 0 0 0 0 0 0
0 0 0 0 0 0 0 0 0 0 0 0 0 0 0 0 0 0 0 0 0 0 0 0 0 0 0 0 0 0 0 0 0 0 0 0 0 0 0 0 0 0 0 0 0 0 0 0 0 0 0 0 0 0
0 0 0 0 0 0 0 0 0 0 0 0 0 0 0 0 0 0 0 0 0 0 0 0 0 0 0 0 0 0 0 0 0 0 0 0 0 0 0 0 0 0 0 0 0 0 0 0 0 0 0 0 0 0
0 0 0 0 0 0 0 0 0 0 0 0 0 0 0 0 0 0 0 0 0 0 0 0 0 0 0 0 0 0 0 0 0 0 0 0 0 0 -1 0 0 0 0 0 0 0 0 0 0 0 0 0 0 0
Wind_Speed
41 39 38 32 28 23 20 16 12 8 6 4 7 10 15 17 14 14 17 17 18 21 22 20 19 19 19 17 17 15 16 14 13 11 8 12 13 13 14 14 15 15 16 16 16 18 21 21 17 21 22 27 30 32
43 44 36 32 27 24 20 16 13 9 7 5 6 8 14 16 13 15 17 19 20 22 25 24 23 20 19 17 17 16 15 15 13 13 8 15 15 14 13 14 15 17 17 18 18 19 15 23 22 19 27 32 34 36
42 48 36 32 30 24 22 17 14 11 9 6 7 10 13 17 16 15 18 21 23 27 27 24 24 19 18 16 15 15 15 13 13 13 12 11 16 17 17 16 16 16 19 19 23 18 26 32 20 29 34 35 36 37
32 46 32 31 30 26 23 19 15 14 11 8 7 13 15 17 20 20 16 9 18 23 24 24 21 22 16 16 16 15 16 15 14 11 10 10 15 18 18 16 18 20 21 25 25 26 32 20 32 37 38 36 36 38
48 58 35 31 31 26 23 20 15 14 13 9 9 12 14 17 20 15 8 10 12 19 22 24 24 21 17 17 19 19 17 15 14 12 11 9 14 14 14 15 16 15 19 23 25 32 32 37 38 39 37 36 37 39
51 46 32 34 31 26 24 20 17 14 14 12 12 14 17 16 17 15 17 10 9 15 21 22 22 23 22 22 22 21 18 17 16 14 13 10 16 16 14 17 14 16 18 21 28 30 35 37 37 35 36 40 39 40
54 44 35 34 30 28 24 21 19 17 16 14 13 14 14 12 13 14 12 9 8 13 18 21 22 21 19 20 19 19 18 17 16 15 14 13 10 14 14 11 13 19 21 23 24 25 29 27 33 37 37 37 38 38
56 41 38 35 32 28 25 22 20 18 18 16 15 14 11 14 13 12 7 6 8 14 17 19 20 21 19 21 21 19 20 18 16 16 15 14 13 12 10 14 17 22 23 23 23 26 27 32 33 34 34 35 36 37
53 41 39 36 32 30 27 24 21 20 19 20 18 17 9 10 13 10 5 8 11 14 16 17 17 18 18 19 19 19 17 19 16 16 15 15 14 12 13 11 8 13 19 24 27 27 29 31 33 34 35 35 35 36
47 42 39 36 33 31 28 26 23 22 24 23 10 4 6 10 3 5 9 12 14 15 16 17 16 17 16 16 17 16 16 17 16 15 15 13 11 10 10 10 9 4 7 13 17 26 30 34 35 36 36 35 35 36
45 43 40 37 34 32 29 26 26 26 19 5 2 6 8 3 7 11 11 12 13 13 15 15 16 16 15 15 16 15 14 14 13 13 11 11 9 9 11 11 12 14 16 21 14 15 18 22 30 37 38 36 35 34
47 44 41 37 35 34 30 30 29 13 9 3 6 9 6 8 10 9 10 11 13 11 12 13 14 15 15 15 14 14 13 13 11 11 11 11 10 10 11 13 18 21 24 26 27 28 29 32 32 32 34 37 36 35
48 44 41 38 36 33 32 29 19 14 14 6 4 7 7 9 9 8 8 10 10 9 11 12 15 16 15 15 14 13 11 10 12 11 11 12 11 12 15 20 24 27 28 32 32 31 34 37 37 35 38 36 36 36
47 42 41 37 35 34 32 24 21 13 3 5 7 7 9 9 9 9 9 9 10 10 12 14 16 16 16 15 14 13 11 11 12 13 13 11 14 17 21 23 25 30 33 33 33 35 37 38 41 40 38 40 39 39
46 42 38 35 34 33 27 22 14 5 6 8 7 10 8 7 9 8 9 11 12 11 14 16 18 17 16 15 14 13 12 12 12 14 14 15 20 23 26 29 31 33 34 33 33 36 39 41 43 44 42 40 39 39
45 39 34 35 33 29 25 17 7 5 8 8 9 8 5 5 6 8 9 10 11 13 16 18 17 17 16 15 14 12 13 13 16 16 16 20 25 30 33 34 35 35 35 34 34 36 39 41 42 42 42 42 40 38
42 33 38 35 30 26 20 9 7 8 8 9 7 5 4 5 5 7 9 10 11 14 17 18 17 17 17 16 15 14 15 17 20 17 19 24 31 34 35 35 35 35 33 31 32 33 33 35 37 38 41 41 39 38
36 40 38 35 29 21 10 6 7 7 6 5 2 2 5 6 6 8 10 9 13 15 17 18 17 17 17 18 17 17 15 19 20 22 25 29 32 33 32 34 33 30 28 28 28 28 28 33 36 39 39 39 38 36
41 39 37 32 21 11 7 8 7 5 4 2 2 3 5 7 11 10 10 11 15 16 17 19 19 19 18 17 19 19 20 22 25 27 29 31 31 31 32 31 29 26 26 26 25 26 27 27 28 38 39 37 37 35
40 37 31 21 11 8 6 7 5 3 3 3 4 4 7 9 11 11 10 13 15 18 19 20 19 18 18 19 18 21 23 23 25 28 31 30 30 30 29 27 26 25 26 25 24 25 25 27 33 30 37 39 36 34
35 29 21 13 9 6 4 2 4 6 2 4 4 8 10 10 12 13 14 14 17 20 21 18 17 17 17 17 18 19 20 20 21 23 27 30 30 29 28 27 26 26 27 25 24 27 27 32 40 38 40 39 35 33
28 20 14 9 7 4 4 8 5 6 9 7 8 11 12 13 13 14 16 16 20 20 18 20 18 16 17 17 18 17 17 17 19 22 23 26 30 32 31 29 30 29 26 24 22 20 39 40 39 38 40 37 33 32
17 13 10 8 9 13 12 11 12 12 10 8 10 13 15 15 15 15 18 18 20 16 15 15 15 15 16 17 18 19 16 17 20 21 24 25 25 27 30 31 28 27 26 26 23 20 33 39 40 39 38 35 32 32
13 11 13 16 16 16 12 14 12 10 9 11 11 14 14 15 16 16 21 20 20 19 15 13 13 15 15 16 20 21 20 19 20 22 23 26 31 31 30 28 24 23 22 17 40 34 30 38 38 38 35 34 33 32
16 18 16 17 18 17 16 15 14 13 13 12 13 15 15 15 19 21 23 23 20 17 14 13 12 12 16 19 22 23 23 22 24 26 23 22 27 30 30 28 24 22 26 26 38 39 40 40 39 36 33 32 32 31
17 16 16 15 15 15 13 14 13 13 13 15 15 14 16 19 22 25 23 20 16 14 13 13 13 15 18 19 24 26 25 22 21 24 24 23 25 28 30 29 34 33 28 29 38 38 36 37 36 34 32 31 31 30
17 15 17 16 11 7 9 10 10 13 15 15 14 16 19 23 24 22 18 14 14 12 14 14 14 16 20 24 25 24 24 21 20 22 24 25 25 24 25 25 24 28 31 36 39 39 34 32 34 34 32 32 30 28
14 11 8 7 9 12 10 12 13 15 15 13 12 18 19 19 23 19 16 15 11 15 18 20 20 20 23 25 25 25 24 22 23 25 26 26 26 27 29 26 25 28 34 37 37 37 36 35 33 32 31 30 29 29
13 9 9 9 11 13 14 14 13 13 11 10 16 19 19 17 18 16 17 17 19 21 23 25 26 24 25 24 22 21 21 23 29 33 35 35 39 38 28 28 29 30 33 34 34 35 34 34 31 31 30 29 29 28
11 13 12 14 16 17 15 14 13 13 14 15 17 19 20 19 18 19 20 22 22 23 24 25 25 24 24 26 27 26 24 25 25 27 32 34 37 32 32 30 27 29 31 33 34 34 33 32 32 30 29 27 26 27
13 15 15 15 16 15 14 15 16 16 16 17 19 21 22 23 23 22 21 21 21 21 20 21 22 23 25 29 31 33 36 30 28 29 31 32 31 28 29 26 27 30 31 33 32 32 33 32 31 31 30 28 27 26
15 16 15 18 18 15 14 15 16 17 20 20 20 20 22 23 25 22 21 22 20 20 20 22 27 30 27 28 29 30 31 32 35 35 33 30 28 26 25 27 31 30 30 32 31 32 32 32 32 31 30 28 28 27
15 15 15 15 16 17 17 17 18 20 19 21 21 22 21 21 22 19 20 20 20 22 25 27 29 30 32 33 33 32 32 31 30 28 26 27 29 29 27 28 30 29 30 30 30 31 32 32 31 30 29 28 27 27
Wind_Direction
244 242 203 201 201 185 182 184 181 168 132 94 61 57 72 77 30 43 62 65 72 76 86 96 101 100 103 109 104 123 130 133 120 121 340 309 306 305 310 310 309 309 310 310 308 302 297 314 323 310 311 307 307 305
240 226 197 197 196 183 177 177 178 167 142 111 69 49 70 76 38 48 58 57 58 63 83 91 93 113 111 117 120 126 125 133 123 134 356 306 304 309 315 313 317 309 309 310 309 310 322 314 315 321 311 303 300 296
242 204 197 198 189 179 178 172 169 161 141 122 83 67 71 80 70 60 70 71 66 71 72 79 80 106 113 119 110 118 130 114 124 344 339 338 304 303 303 312 317 318 318 312 307 314 304 298 318 305 305 302 301 301
234 201 194 188 186 176 176 166 161 146 134 121 94 81 77 77 82 81 72 10 47 68 65 73 99 92 114 114 108 95 108 94 81 46 38 12 316 309 307 317 315 315 316 307 305 306 304 320 303 300 296 297 301 303
226 206 190 181 182 177 172 163 163 146 130 124 102 89 78 81 87 63 25 12 1 52 70 76 80 95 106 113 100 101 110 109 102 96 84 86 332 324 323 323 319 331 323 312 309 305 302 296 299 298 298 301 300 299
210 192 177 171 177 176 169 160 157 148 131 122 111 102 92 75 84 66 63 1 11 42 59 60 79 77 87 92 92 98 108 109 107 113 104 69 331 333 341 320 331 332 329 324 315 312 305 301 303 307 304 299 301 300
197 191 176 174 174 168 163 156 149 141 127 122 117 110 96 62 57 51 56 55 1 22 49 56 60 75 93 90 90 93 102 110 117 112 116 112 76 1 351 353 339 332 333 332 332 333 324 326 315 308 307 308 308 306
195 185 175 172 169 167 158 153 146 137 125 119 116 104 83 74 59 43 346 342 357 28 32 49 59 65 81 70 69 84 82 95 100 100 109 113 119 119 99 4 345 333 331 333 339 335 336 327 323 322 318 314 312 312
190 179 172 168 167 162 155 149 147 135 125 118 111 100 63 49 64 54 339 336 353 7 36 40 52 51 65 66 70 70 76 69 86 85 96 102 105 104 103 108 114 27 354 340 336 337 336 335 333 330 327 321 316 315
184 175 169 168 165 156 154 149 143 134 125 119 107 48 37 62 26 6 343 7 355 352 9 37 45 51 58 57 55 57 59 58 60 66 78 78 84 106 103 81 67 112 53 20 6 348 340 332 331 332 331 327 322 317
175 169 168 160 161 157 154 149 142 134 130 160 310 338 74 329 358 6 35 15 6 11 16 34 41 43 40 43 42 43 43 44 43 50 54 50 52 74 61 48 39 24 11 356 2 355 351 346 337 327 326 329 328 323
171 165 165 158 157 153 152 148 145 161 154 131 74 79 42 26 20 20 15 3 1 14 24 31 30 27 27 20 29 30 33 33 31 34 28 20 26 39 30 20 1 356 349 345 342 338 336 330 329 330 329 324 322 323
166 163 163 159 154 154 151 150 160 138 118 102 10 357 1 356 353 354 359 1 5 19 24 22 12 9 10 10 12 12 19 16 19 9 3 2 14 8 1 346 340 339 340 335 334 334 330 324 322 321 317 319 319 317
164 161 159 158 153 152 149 156 149 151 270 295 312 321 334 349 349 352 359 7 2 15 17 6 2 360 1 3 5 3 7 8 357 350 350 1 357 349 343 340 336 334 333 332 331 329 327 325 320 316 314 310 310 309
161 161 159 158 155 153 153 153 158 229 291 298 326 317 341 357 350 358 353 356 351 8 3 3 359 0 0 1 4 2 1 355 354 352 356 349 343 339 336 334 333 332 332 330 330 328 324 321 319 316 313 309 306 302
154 154 166 157 154 151 154 154 202 277 296 312 331 356 35 2 1 354 359 12 12 17 7 2 3 4 3 5 5 3 357 348 351 348 348 344 338 334 331 331 331 331 330 329 328 327 325 324 322 320 317 312 303 299
162 182 159 156 152 153 156 190 251 280 303 317 342 47 33 16 38 11 7 10 26 8 1 4 3 3 1 0 357 358 350 351 350 348 340 335 331 330 330 330 330 331 331 331 331 331 334 335 332 328 321 316 307 296
165 158 156 150 151 155 189 250 269 309 312 347 74 86 335 326 7 358 355 27 7 1 3 360 2 355 354 353 351 351 351 346 344 340 335 332 331 332 333 333 334 335 336 336 337 337 337 337 332 329 325 319 309 296
155 154 153 154 164 177 227 261 290 307 319 335 75 327 322 324 325 350 7 13 1 3 4 357 352 351 350 347 344 345 342 340 338 338 336 335 336 336 336 338 340 341 341 341 341 342 340 340 340 325 322 322 301 297
146 149 154 167 192 218 246 275 316 347 269 276 273 301 313 317 333 344 2 356 358 351 349 347 347 349 347 346 346 342 341 342 341 340 342 347 349 348 348 348 347 346 343 341 340 339 339 340 336 340 327 312 293 284
149 159 172 196 222 247 289 296 307 304 290 279 264 288 303 320 328 332 335 351 342 342 342 344 344 346 347 345 345 344 344 346 348 347 346 345 348 349 349 350 347 345 343 342 342 341 341 334 316 326 315 305 292 281
161 174 189 218 229 277 304 285 262 287 284 277 272 292 306 312 322 330 340 337 334 337 341 342 344 347 345 343 345 348 349 350 349 348 348 348 349 350 349 348 345 342 342 342 342 341 300 317 316 323 313 297 288 284
166 192 213 230 234 251 247 255 259 273 282 271 285 296 309 320 329 341 337 339 337 345 344 346 346 346 344 347 349 347 345 342 341 343 345 346 346 346 345 345 347 344 342 341 343 344 332 322 313 314 309 297 293 289
190 221 232 236 242 242 249 255 273 281 292 293 301 310 321 329 338 337 331 337 340 345 348 348 349 348 352 351 349 349 346 342 337 338 340 340 340 342 344 345 348 346 345 341 306 326 342 327 323 311 294 292 289 289
215 228 238 239 245 243 252 254 267 279 289 301 309 317 326 335 329 330 331 337 341 344 350 354 353 350 346 346 345 345 346 345 340 339 343 344 342 341 342 344 345 347 347 346 321 308 312 309 312 304 292 293 292 289
222 248 246 245 242 253 257 262 271 282 300 308 317 328 331 327 326 327 335 343 346 351 352 349 345 343 339 339 339 339 340 343 342 337 340 343 344 343 344 343 338 340 344 344 322 297 293 301 308 298 290 290 290 287
239 256 250 251 263 269 282 291 298 303 306 312 319 322 324 322 323 331 341 347 349 352 350 346 339 334 332 334 335 336 337 339 336 335 338 338 338 338 338 338 338 340 336 326 310 309 288 285 290 293 288 291 291 283
259 261 243 255 274 282 290 296 300 304 312 321 326 320 324 325 328 337 343 350 341 340 339 337 334 331 330 330 331 335 338 340 339 336 335 335 337 337 335 335 336 336 328 308 303 307 305 303 298 293 287 281 275 283
268 260 266 279 287 297 303 305 308 316 327 323 320 322 326 329 336 339 342 338 336 332 328 327 329 332 333 336 337 337 338 338 336 333 332 332 332 333 337 337 337 335 314 299 298 301 300 297 288 289 284 281 299 301
259 272 280 286 292 297 307 314 318 324 322 324 326 329 329 330 331 330 326 324 323 323 326 329 333 337 338 339 337 337 339 336 333 331 331 332 334 336 334 335 337 327 313 301 298 300 305 307 306 309 307 313 316 313
274 283 289 295 298 306 311 317 320 324 325 325 326 324 326 332 334 334 332 333 334 334 337 338 340 341 337 335 333 332 331 336 335 333 330 330 332 336 336 336 331 314 316 302 298 302 306 310 312 310 311 312 314 316
279 284 289 294 300 311 317 316 319 321 324 325 328 332 334 334 334 341 347 347 350 348 347 343 338 337 338 336 335 332 329 330 330 330 331 333 334 339 339 333 310 311 313 297 297 303 306 306 308 312 317 319 316 313
288 293 300 305 306 307 313 317 320 322 326 327 331 334 335 337 336 345 350 352 347 343 341 340 340 338 337 336 334 335 334 334 337 340 340 337 330 328 332 326 312 312 304 299 301 307 308 310 312 317 321 323 323 321